This demonstration page uses our WeatherBlox Daily Observations layout. Learn more.

Left ArrowRight Arrow

39.92423, -83.80882

Hourly Observations for December 2, 2022

Temp ( °F °C ) Dew Point ( °F °C ) Humidity (%) Winds ( mph kmh ) Pressure ( in mb ) Visibility ( mi km ) Precip ( " mm )
12:56 am 00:56 Clear 25 -3.9 18 -7.8 74 74 SE 7 11 30.38 1029 10 16 0.00 0.00
1:56 am 01:56 Mostly Cloudy 26 -3.3 19 -7.2 74 74 SSE 5 7 30.38 1029 10 16 0.00 0.00
2:56 am 02:56 Partly Cloudy 28 -2.2 20 -6.7 71 71 SSE 10 17 30.36 1028 10 16 0.00 0.00
3:56 am 03:56 Cloudy 31 -0.6 21 -6.1 66 66 SSE 6 9 30.34 1027 10 16 0.00 0.00
4:56 am 04:56 Cloudy 31 -0.6 22 -5.6 69 69 SSE 7 11 30.35 1028 10 16 0.00 0.00
5:56 am 05:56 Cloudy 31 -0.6 22 -5.6 69 69 SSE 8 13 30.33 1027 10 16 0.00 0.00
6:56 am 06:56 Cloudy 33 0.6 21 -6.1 61 61 S 8 13 30.33 1027 10 16 0.00 0.00
7:56 am 07:56 Cloudy 33 0.6 23 -5 66 66 SSE 9 15 30.32 1027 10 16 0.00 0.00
8:56 am 08:56 Cloudy 36 2.2 23 -5 59 59 S 8 13 30.31 1026 10 16 0.00 0.00
9:56 am 09:56 Cloudy 40 4.4 23 -5 50 50 S 8 13 30.29 1026 10 16 0.00 0.00
10:56 am 10:56 Cloudy 44 6.7 24 -4.4 45 45 undefined N/A 30.27 1025 10 16 0.00 0.00
11:56 am 11:56 Cloudy 49 9.4 25 -3.9 39 39 SSW 13 20 30.20 1023 10 16 0.00 0.00
12:56 pm 12:56 Cloudy 48 8.9 25 -3.9 40 40 SSW 16 26 30.17 1022 10 16 0.00 0.00
1:56 pm 13:56 Mostly Cloudy 51 10.6 26 -3.3 37 37 SSW 16 26 30.14 1021 10 16 0.00 0.00
2:56 pm 14:56 Cloudy 52 11.1 26 -3.3 36 36 S 14 22 30.11 1020 10 16 0.00 0.00
3:56 pm 15:56 Partly Cloudy 51 10.6 27 -2.8 39 39 S 12 19 30.09 1019 10 16 0.00 0.00
4:56 pm 16:56 Mostly Cloudy 51 10.6 30 -1.1 44 44 S 13 20 30.07 1018 10 16 0.00 0.00
5:56 pm 17:56 Mostly Cloudy 51 10.6 31 -0.6 46 46 S 13 20 30.06 1018 10 16 0.00 0.00
6:56 pm 18:56 Cloudy 52 11.1 33 0.6 48 48 S 14 22 30.05 1018 10 16 0.00 0.00
7:56 pm 19:56 Cloudy 52 11.1 37 2.8 57 57 SSW 15 24 30.04 1017 10 16 0.01 0.13
8:56 pm 20:56 Cloudy 52 11.1 41 5 66 66 S 15 24 30.01 1016 10 16 0.01 0.13
9:56 pm 21:56 Cloudy 54 12.2 42 5.6 64 64 SSW 18 30 29.97 1015 10 16 0.00 0.00
10:56 pm 22:56 Cloudy 54 12.2 43 6.1 66 66 SSW 17 28 29.96 1014 10 16 0.01 0.13
11:56 pm 23:56 Cloudy with Light Rain 54 12.2 44 6.7 69 69 SSW 28 44 29.94 1014 10 16 0.01 0.13

Powered by AerisWeather